Racine, WI

2:23 AM CDT on September 29, 2016 (GMT -0500)
Batten

Weather History for KRAC - August, 2013

Change the Weather History Date:

Friday, August 30, 2013

  Actual Average Record
Temperature  
Mean Temperature 82 °F -  
Max Temperature 95 °F 77 °F 96 °F (1953)
Min Temperature 68 °F 61 °F 48 °F (1986)
Cooling Degree Days 16    
Growing Degree Days 32 (Base 50)    
Moisture  
Dew Point 67 °F    
Average Humidity 73    
Maximum Humidity 93    
Minimum Humidity 44    
Precipitation  
Precipitation 0.00 in - - ()
Sea Level Pressure  
Sea Level Pressure 29.87 in    
Wind  
Wind Speed 7 mph (West)    
Max Wind Speed 16 mph    
Max Gust Speed 23 mph    
Visibility 10 miles    
Events Rain , Thunderstorm    
Averages and records for this station are not official NWS values.
T = Trace of Precipitation, MM = Missing Value Source: NWS Daily Summary

Daily Weather History Graph

Daily Weather History Graph

Search for Another Location

Airport or City:

Trip Planner

Search our weather history database for the weather conditions in past years. The results will help you decide how hot, cold, wet, or windy it might be!

Date:

Astronomy

Aug. 30, 2013 Rise Set
Actual Time 6:14 AM CDT 7:28 PM CDT
Civil Twilight 5:44 AM CDT 7:57 PM CDT
Nautical Twilight 5:09 AM CDT 8:32 PM CDT
Astronomical Twilight 4:32 AM CDT 9:09 PM CDT
Moon 12:48 AM CDT (8/30) 3:48 PM CDT (8/30)
Length of Visible Light 14h 12m
Length of Day
13h 14m
Waning Crescent, 29% of the Moon is Illuminated
Aug 30
Waning Crescent
Sep 5
New
Sep 12
First Quarter
Sep 19
Full
Sep 26
Last Quarter

Hourly Weather History & Observations

Time (CDT) Temp. Heat Index Dew Point Humidity Pressure Visibility Wind Dir Wind Speed Gust Speed Precip Events Conditions
12:53 AM 71.1 °F - 68.0 °F 90% 29.99 in 7.0 mi Calm Calm - N/A   Clear
1:53 AM 68.0 °F - 66.0 °F 93% 29.99 in 8.0 mi SSW 3.5 mph - N/A   Clear
2:53 AM 68.0 °F - 64.9 °F 90% 29.97 in 8.0 mi SSW 3.5 mph - N/A   Clear
3:53 AM 68.0 °F - 64.9 °F 90% 29.94 in 10.0 mi SSW 3.5 mph - N/A   Clear
4:53 AM 71.1 °F - 64.9 °F 81% 29.92 in 9.0 mi SSW 9.2 mph - N/A   Clear
5:53 AM 70.0 °F - 64.9 °F 84% 29.92 in 8.0 mi SW 6.9 mph - N/A   Clear
6:53 AM 71.1 °F - 66.0 °F 84% 29.92 in 6.0 mi SSW 5.8 mph - N/A   Haze
7:53 AM 73.9 °F - 66.9 °F 79% 29.91 in 9.0 mi SW 9.2 mph - N/A   Scattered Clouds
8:53 AM 78.1 °F - 68.0 °F 71% 29.89 in 10.0 mi SW 10.4 mph - N/A   Mostly Cloudy
9:53 AM 82.9 °F 87.5 °F 71.1 °F 67% 29.88 in 10.0 mi SW 12.7 mph - N/A   Clear
10:53 AM 87.1 °F 93.6 °F 72.0 °F 61% 29.86 in 10.0 mi SW 10.4 mph - N/A   Clear
11:53 AM 90.0 °F 99.0 °F 73.9 °F 59% 29.84 in 10.0 mi SSW 13.8 mph - N/A   Clear
12:53 PM 93.0 °F 101.9 °F 73.0 °F 52% 29.82 in 10.0 mi SSW 11.5 mph - N/A   Clear
1:53 PM 93.9 °F 102.1 °F 72.0 °F 49% 29.80 in 10.0 mi SW 9.2 mph - N/A   Clear
2:53 PM 95.0 °F 101.3 °F 70.0 °F 44% 29.78 in 10.0 mi West 12.7 mph 20.7 mph N/A   Partly Cloudy
3:53 PM 90.0 °F 95.4 °F 70.0 °F 52% 29.76 in 10.0 mi WSW 8.1 mph - N/A   Partly Cloudy
4:00 PM 89.6 °F 94.7 °F 69.8 °F 52% 29.78 in 10.0 mi West 9.2 mph - N/A Thunderstorm Partly Cloudy
4:34 PM 80.6 °F 82.7 °F 66.2 °F 61% 29.80 in 10.0 mi NNW 11.5 mph 23.0 mph 0.00 in Rain , Thunderstorm Light Thunderstorms and Rain
4:53 PM 79.0 °F - 66.9 °F 66% 29.79 in 10.0 mi NNW 5.8 mph 18.4 mph 0.00 in Thunderstorm Clear
5:14 PM 78.8 °F - 64.4 °F 61% 29.82 in 10.0 mi WNW 8.1 mph - N/A   Clear
5:53 PM 77.0 °F - 64.9 °F 66% 29.80 in 10.0 mi WNW 4.6 mph - N/A   Clear
6:53 PM 75.0 °F - 66.9 °F 76% 29.84 in 10.0 mi NNW 4.6 mph - N/A   Scattered Clouds
7:36 PM 75.2 °F - 68.0 °F 78% 29.87 in 10.0 mi NNE 10.4 mph - N/A   Mostly Cloudy
7:53 PM 73.9 °F - 68.0 °F 82% 29.86 in 10.0 mi NNE 11.5 mph - N/A   Overcast
8:53 PM 72.0 °F - 66.0 °F 81% 29.87 in 10.0 mi NNE 13.8 mph - N/A   Overcast
9:22 PM 71.6 °F - 66.2 °F 83% 29.89 in 10.0 mi NNE 16.1 mph - N/A   Mostly Cloudy
9:42 PM 71.6 °F - 64.4 °F 78% 29.89 in 10.0 mi North 10.4 mph - N/A   Mostly Cloudy
9:53 PM 70.0 °F - 64.9 °F 84% 29.88 in 10.0 mi NNE 12.7 mph 18.4 mph N/A   Overcast
10:53 PM 70.0 °F - 64.0 °F 81% 29.88 in 10.0 mi NNE 9.2 mph 18.4 mph N/A   Mostly Cloudy
11:53 PM 70.0 °F - 64.0 °F 81% 29.88 in 10.0 mi NNE 8.1 mph - N/A   Overcast